Location: Herm
(49.4830°N, 2.4500°W)
Time: 09:30:35
(UTC+00:00)

Envisat - Pass Details

Date: 09 October 2022
Orbit: 763 x 765 km, 98.2° (Epoch: 01 December)

Event Time Altitude Azimuth Distance (km) Brightness Sun altitude
Rises 04:33:30 0° 24° (NNE) 3,245 6.9 -27.5°
Reaches altitude 10° 04:36:14 10° 37° (NE) 2,314 6.2 -27.1°
Maximum altitude 04:40:23 25° 92° (E) 1,523 5.1 -26.5°
Drops below altitude 10° 04:44:30 10° 147° (SSE) 2,298 5.6 -25.8°
Sets 04:47:11 0° 160° (SSE) 3,218 6.2 -25.4°
